GW7149 Weather Reports


time (UTC)temp
C
wind
direction
speed
KPH
gust
KPH
rain 1hr
cm
rain 24hr
cm
rain mn
cm
humidity
%
barometer
mb
20260505012152 11 284 3.2 4.8 0.00 0.00 0.00 74 1011.3
20260505011652 11 293 4.8 6.4 0.00 0.00 0.00 74 1011.1
20260505011150 11 283 3.2 4.8 0.00 0.00 0.00 73 1011.1
20260505010645 11 296 4.8 4.8 0.00 0.00 0.00 73 1011.0
20260505010142 11 264 3.2 6.4 0.00 0.00 0.00 72 1011.0
20260505005638 11 321 4.8 6.4 0.00 0.00 0.00 71 1011.0
20260505005135 11 280 3.2 4.8 0.00 0.00 0.00 71 1010.7
20260505004632 11 248 4.8 12.9 0.00 0.00 0.00 71 1010.6
20260505004129 11 252 6.4 12.9 0.00 0.00 0.00 70 1010.3
20260505003626 12 274 4.8 11.3 0.00 0.00 0.00 70 1010.5
20260505003124 12 251 4.8 9.7 0.00 0.00 0.00 69 1010.2
20260505002619 12 304 4.8 6.4 0.00 0.00 0.00 69 1010.2
20260505002118 12 327 6.4 9.7 0.00 0.00 0.00 68 1010.1
20260505001615 12 265 4.8 6.4 0.00 0.00 0.00 67 1010.3
20260505001112 12 223 4.8 6.4 0.00 0.00 0.00 66 1010.2
20260505000609 12 319 6.4 9.7 0.00 0.00 0.00 66 1010.0
20260505000107 12 293 3.2 4.8 0.00 0.00 0.00 65 1010.0
20260504235603 12 296 3.2 3.2 0.00 0.00 0.00 64 1010.0
20260504235100 13 288 3.2 6.4 0.00 0.00 0.00 63 1009.9
20260504234557 13 8 4.8 6.4 0.00 0.00 0.00 61 1009.8
20260504234054 13 241 3.2 3.2 0.00 0.00 0.00 60 1009.7
20260504233549 13 301 4.8 6.4 0.00 0.00 0.00 59 1009.7
20260504233046 13 324 4.8 6.4 0.00 0.00 0.00 57 1009.7
20260504232543 13 245 3.2 6.4 0.00 0.00 0.00 56 1009.7
20260504232041 14 251 0.0 0.0 0.00 0.00 0.00 54 1009.6
20260504231537 14 282 3.2 3.2 0.00 0.00 0.00 54 1009.5
20260504231033 14 318 4.8 6.4 0.00 0.00 0.00 54 1009.5
20260504230530 14 282 4.8 4.8 0.00 0.00 0.00 53 1009.4
20260504230029 15 313 6.4 9.7 0.00 0.00 0.00 52 1009.6
20260504225526 15 315 9.7 11.3 0.00 0.00 0.00 52 1009.6
20260504225023 15 314 6.4 9.7 0.00 0.00 0.00 51 1009.5
20260504224519 15 299 1.6 6.4 0.00 0.00 0.00 51 1009.5
20260504224017 15 298 6.4 6.4 0.00 0.00 0.00 50 1009.4
20260504223513 15 268 3.2 4.8 0.00 0.00 0.00 50 1009.3
20260504223009 16 283 6.4 11.3 0.00 0.00 0.00 49 1009.1
20260504222506 16 230 4.8 9.7 0.00 0.00 0.00 48 1009.2
20260504222003 16 298 6.4 6.4 0.00 0.00 0.00 47 1009.2
20260504221500 16 271 1.6 11.3 0.00 0.00 0.00 46 1009.2
20260504220957 16 297 8.0 11.3 0.00 0.00 0.00 46 1009.2
20260504220454 17 206 3.2 6.4 0.00 0.00 0.00 45 1009.1
20260504215951 17 235 4.8 6.4 0.00 0.00 0.00 45 1009.2
20260504215447 17 280 3.2 6.4 0.00 0.00 0.00 45 1009.4
20260504214944 17 306 6.4 6.4 0.00 0.00 0.00 45 1009.4
20260504214440 17 301 4.8 9.7 0.00 0.00 0.00 44 1009.4
20260504213937 17 266 6.4 12.9 0.00 0.00 0.00 44 1009.1
20260504213433 17 35 3.2 4.8 0.00 0.00 0.00 43 1009.1
20260504212931 17 273 3.2 4.8 0.00 0.00 0.00 43 1009.1
20260504212426 17 220 4.8 9.7 0.00 0.00 0.00 43 1008.9
20260504211925 17 311 8.0 9.7 0.00 0.00 0.00 44 1009.1
20260504211420 17 297 4.8 11.3 0.00 0.00 0.00 44 1009.1
20260504210918 18 346 8.0 11.3 0.00 0.00 0.00 43 1009.3
20260504210415 18 240 3.2 14.5 0.00 0.00 0.00 44 1008.9
20260504205912 18 264 4.8 16.1 0.00 0.00 0.00 43 1009.0
20260504205410 18 359 4.8 11.3 0.00 0.00 0.00 43 1009.0
20260504204908 18 232 4.8 11.3 0.00 0.00 0.00 43 1009.0
20260504204406 18 299 6.4 14.5 0.00 0.00 0.00 43 1009.1
20260504203905 18 306 3.2 6.4 0.00 0.00 0.00 43 1008.9
20260504203401 18 212 3.2 11.3 0.00 0.00 0.00 43 1008.8
20260504202857 18 325 6.4 11.3 0.00 0.00 0.00 42 1008.9
20260504202354 18 297 3.2 6.4 0.00 0.00 0.00 42 1008.6
20260504201851 18 313 6.4 6.4 0.00 0.00 0.00 42 1008.9
20260504201348 18 326 4.8 6.4 0.00 0.00 0.00 41 1008.8
20260504200846 18 297 9.7 11.3 0.00 0.00 0.00 41 1008.8
20260504200342 18 218 4.8 14.5 0.00 0.00 0.00 41 1008.8
20260504195839 18 295 8.0 12.9 0.00 0.00 0.00 39 1008.9
20260504195334 19 282 4.8 17.7 0.00 0.00 0.00 38 1008.8
20260504194831 19 311 6.4 6.4 0.00 0.00 0.00 39 1009.1
20260504194327 19 291 4.8 9.7 0.00 0.00 0.00 38 1008.9
20260504193823 19 269 6.4 11.3 0.00 0.00 0.00 38 1008.6
20260504193321 19 253 6.4 11.3 0.00 0.00 0.00 37 1008.8
20260504192819 18 322 1.6 11.3 0.00 0.00 0.00 38 1008.9
20260504192317 18 280 9.7 12.9 0.00 0.00 0.00 38 1008.9
20260504191815 19 317 9.7 16.1 0.00 0.00 0.00 37 1008.8
20260504191313 19 324 6.4 14.5 0.00 0.00 0.00 36 1008.8
20260504190808 19 263 8.0 12.9 0.00 0.00 0.00 35 1008.8
20260504190304 21 289 4.8 14.5 0.00 0.00 0.00 33 1009.1
20260504185801 20 272 3.2 6.4 0.00 0.00 0.00 37 1008.9
20260504185258 20 280 6.4 11.3 0.00 0.00 0.00 35 1008.9
20260504184754 20 358 3.2 9.7 0.00 0.00 0.00 34 1008.9
20260504184250 20 26 6.4 9.7 0.00 0.00 0.00 34 1009.1
20260504183745 20 282 6.4 9.7 0.00 0.00 0.00 33 1009.2
20260504183243 20 358 9.7 12.9 0.00 0.00 0.00 33 1009.3
20260504182741 20 200 9.7 12.9 0.00 0.00 0.00 32 1009.1
20260504182238 20 223 6.4 9.7 0.00 0.00 0.00 33 1009.4
20260504181735 20 288 8.0 14.5 0.00 0.00 0.00 32 1009.4
20260504181233 20 255 3.2 6.4 0.00 0.00 0.00 33 1009.4
20260504180732 19 306 9.7 12.9 0.00 0.00 0.00 32 1009.3
20260504180230 20 264 4.8 14.5 0.00 0.00 0.00 32 1009.5
20260504175727 20 215 8.0 16.1 0.00 0.00 0.00 32 1009.6
20260504175224 19 256 6.4 9.7 0.00 0.00 0.00 33 1009.8
20260504174722 20 357 11.3 16.1 0.00 0.00 0.00 31 1009.7
20260504174220 19 331 3.2 12.9 0.00 0.00 0.00 32 1009.5
20260504173715 19 250 6.4 16.1 0.00 0.00 0.00 31 1009.5
20260504173213 19 294 9.7 22.5 0.00 0.00 0.00 31 1009.4
20260504172709 20 277 6.4 17.7 0.00 0.00 0.00 31 1009.8
20260504172206 20 253 11.3 16.1 0.00 0.00 0.00 31 1009.6
20260504171702 19 292 6.4 12.9 0.00 0.00 0.00 32 1009.6
20260504171159 19 300 12.9 20.9 0.00 0.00 0.00 32 1009.3
20260504170656 20 128 9.7 16.1 0.00 0.00 0.00 32 1009.7
20260504170154 20 256 4.8 16.1 0.00 0.00 0.00 31 1009.6
20260504160112 18 253 4.8 16.1 0.00 0.00 0.00 33 1010.5
20260504151039 18 306 3.2 12.9 0.00 0.00 0.00 36 1010.7
20260504150536 18 303 6.4 11.3 0.00 0.00 0.00 35 1010.4
20260504141002 16 223 6.4 11.3 0.00 0.00 0.00 39 1011.2
20260504140459 17 291 11.3 14.5 0.00 0.00 0.00 37 1011.2
20260504130423 15 316 8.0 11.3 0.00 0.00 0.00 43 1011.4
20260504110310 6 278 3.2 4.8 0.00 0.00 0.00 65 1011.6
20260504100228 5 301 3.2 4.8 0.00 0.00 0.00 68 1011.3
20260504081621 6 276 1.6 3.2 0.00 0.00 0.00 58 1010.8
20260504081117 6 269 1.6 3.2 0.00 0.00 0.00 60 1011.0
20260504080614 6 327 1.6 3.2 0.00 0.00 0.00 59 1011.1
20260504080111 6 286 1.6 3.2 0.00 0.00 0.00 60 1011.0
20260504050427 5 245 0.0 0.0 0.00 0.00 0.00 57 1010.7
20260504045924 5 257 0.0 0.0 0.00 0.00 0.00 55 1010.8
20260504045420 5 268 0.0 0.0 0.00 0.00 0.00 55 1011.0
20260504044916 5 254 0.0 0.0 0.00 0.00 0.00 56 1011.0
20260504044414 5 267 0.0 0.0 0.00 0.00 0.00 55 1011.0
20260504043911 5 270 0.0 0.0 0.00 0.00 0.00 55 1011.0
20260504043408 5 245 0.0 0.0 0.00 0.00 0.00 57 1011.1
20260504042905 5 222 0.0 0.0 0.00 0.00 0.00 57 1011.1
20260504042401 5 264 0.0 0.0 0.00 0.00 0.00 55 1011.0
20260504041858 5 252 0.0 0.0 0.00 0.00 0.00 55 1010.8
20260504041354 5 274 0.0 1.6 0.00 0.00 0.00 54 1010.9
20260504040850 5 290 0.0 1.6 0.00 0.00 0.00 55 1010.9
20260504040348 5 291 1.6 1.6 0.00 0.00 0.00 56 1010.7
20260504035843 5 302 1.6 1.6 0.00 0.00 0.00 56 1010.6
20260504035342 5 267 1.6 1.6 0.00 0.00 0.00 57 1010.7
20260504034838 5 303 1.6 3.2 0.00 0.00 0.00 56 1010.8
20260504034336 5 293 1.6 3.2 0.00 0.00 0.00 55 1010.9
20260504033832 5 287 1.6 3.2 0.00 0.00 0.00 54 1010.6
20260504033331 5 282 1.6 1.6 0.00 0.00 0.00 54 1010.6
20260504032827 5 286 0.0 3.2 0.00 0.00 0.00 54 1010.6
20260504032324 5 284 0.0 3.2 0.00 0.00 0.00 55 1010.7
20260504031821 5 264 1.6 1.6 0.00 0.00 0.00 58 1010.5
20260504031318 5 238 1.6 1.6 0.00 0.00 0.00 56 1010.6
20260504030814 5 288 1.6 3.2 0.00 0.00 0.00 57 1010.5
20260504030312 5 286 1.6 1.6 0.00 0.00 0.00 56 1010.6
20260504025808 5 272 1.6 1.6 0.00 0.00 0.00 58 1010.4
20260504025305 5 293 1.6 3.2 0.00 0.00 0.00 58 1010.4
20260504024801 4 285 3.2 3.2 0.00 0.00 0.00 60 1010.4
20260504024258 4 241 0.0 1.6 0.00 0.00 0.00 61 1010.3
20260504023755 4 269 0.0 1.6 0.00 0.00 0.00 61 1010.5
20260504023251 3 269 0.0 1.6 0.00 0.00 0.00 66 1010.2
20260504022747 3 239 0.0 0.0 0.00 0.00 0.00 67 1010.6
20260504022244 4 269 0.0 1.6 0.00 0.00 0.00 64 1010.2
20260504021741 4 232 0.0 0.0 0.00 0.00 0.00 62 1010.4
20260504021238 5 212 0.0 0.0 0.00 0.00 0.00 61 1010.2
20260504020735 5 216 0.0 0.0 0.00 0.00 0.00 59 1010.4
20260504020231 4 212 0.0 0.0 0.00 0.00 0.00 58 1010.2
20260504015728 4 220 0.0 0.0 0.00 0.00 0.00 60 1010.2
20260504015224 4 225 0.0 0.0 0.00 0.00 0.00 61 1010.2
20260504014720 5 227 0.0 0.0 0.00 0.00 0.00 60 1010.0
20260504014217 5 227 0.0 0.0 0.00 0.00 0.00 57 1010.1
20260504013715 5 227 0.0 0.0 0.00 0.00 0.00 54 1010.1
20260504013212 5 227 0.0 0.0 0.00 0.00 0.00 55 1010.0
20260504012708 5 230 0.0 0.0 0.00 0.00 0.00 56 1010.1